Regional Weather Roundup
Issued by NWS

Home | Current Version | Previous Version | Graphics & Text | Print | Product List | Glossary On
Versions: 1 2 3 4 5 6 7 8 9 10 11 12 13 14 15 16 17 18 19 20 21 22 23 24 25 26 27 28 29 30 31 32 33 34 35 36 37 38 39 40 41 42 43 44 45 46 47 48 49 50
476
ASUS43 KDMX 221801
RWRIA

WEATHER ROUNDUP FOR IOWA
NATIONAL WEATHER SERVICE DES MOINES IA
100 PM CDT SUN OCT 22 2017

NOTE: "FAIR" INDICATES FEW OR NO CLOUDS BELOW 12,000 FEET WITH NO
SIGNIFICANT WEATHER AND/OR OBSTRUCTIONS TO VISIBILITY.

* - THESE STATIONS ARE NOT NWS STATIONS...THUS NOT UNDER NWS
QUALITY CONTROL.  THEY ALSO DO NOT REPORT WEATHER SUCH
AS PRECIPITATION OR FOG.

IAZ001>003-012>014-020>022-031>034-043>046-221900-
   NORTHWEST IOWA

CITY           SKY/WX    TMP DP  RH WIND       PRES   REMARKS
DENISON *      SUNNY     63  32  31 W12       30.09F
LE MARS *      SUNNY     64  27  24 W9G18     30.04F
ORANGE CITY *  SUNNY     64  34  32 W13       30.04F
SHELDON *      SUNNY     63  30  29 SW10G16   30.02F
SIOUX CITY     SUNNY     65  32  29 SW10      30.05F
6HR MIN TEMP:  34; 6HR MAX TEMP:  66;

SPENCER        SUNNY     64  31  28 W13       30.05F
6HR MIN TEMP:  37; 6HR MAX TEMP:  64;

STORM LAKE *   SUNNY     63  30  29 W9G16     30.07S
$$

IAZ055>058-069>071-079>083-090>094-221900-
   SOUTHWEST IOWA

CITY           SKY/WX    TMP DP  RH WIND       PRES   REMARKS
ATLANTIC *     SUNNY     63  34  34 W8G17     30.09F
AUDUBON *      SUNNY     63  32  31 W6G17     30.09F
CLARINDA *     CLOUDY    64  37  36 NW10      30.13F
COUNCIL BLFS * SUNNY     63  37  39 SW10      30.10F
CRESTON *      CLOUDY    61  41  48 W10       30.11F
HARLAN  *      SUNNY     64  34  32 W14       30.12F
LAMONI         CLOUDY    59  43  55 NW10      30.10S
6HR MIN TEMP:  49; 6HR MAX TEMP:  59;

RED OAK *      SUNNY     66  34  30 W9G15     30.10F
SHENANDOAH *   SUNNY     64  34  32 VRB7G14   30.11F
$$

IAZ047>049-059>061-072>074-084-221900-
   CENTRAL IOWA

CITY           SKY/WX    TMP DP  RH WIND       PRES   REMARKS
AMES           CLOUDY    61  40  45 NW12      30.06F
6HR MIN TEMP:  49; 6HR MAX TEMP:  62;

ANKENY *       CLOUDY    61  43  51 NW12      30.08F
BOONE *        CLOUDY    61  39  44 NW13G18   30.06F
CHARITON *     CLOUDY    59  43  55 NW14      30.08F
DES MOINES     CLOUDY    62  41  46 NW9       30.07F
6HR MIN TEMP:  50; 6HR MAX TEMP:  62;

GRINNELL*      CLOUDY    54  47  77 NW10      30.07F
KNOXVILLE *    CLOUDY    59  43  55 NW13      30.06F
MARSHALLTOWN   CLOUDY    57  46  66 NW9       30.05F
6HR MIN TEMP:  49; 6HR MAX TEMP:  57;

NEWTON *       CLOUDY    59  43  55 NW12      30.07S
PELLA *        CLOUDY    57  47  68 NW6       30.08F
PERRY *          N/A     64  32  29 W9G17     30.07F
$$

IAZ004>006-015-016-023>025-035-036-221900-
   NORTH CENTRAL IOWA

CITY           SKY/WX    TMP DP  RH WIND       PRES   REMARKS
ALGONA *       SUNNY     63  30  29 W14G21    30.04F
CLARION *      CLOUDY    63  34  34 NW14G22   30.05F
ESTHERVILLE    SUNNY     61  33  35 W13G18    30.04S
6HR MIN TEMP:  39; 6HR MAX TEMP:  61;

FORT DODGE *   SUNNY     62  38  40 W10       30.05F
MASON CITY     MOSUNNY   60  38  43 W13       30.05F
6HR MIN TEMP:  46; 6HR MAX TEMP:  60;

FOREST CITY *    N/A     61  37  41 W10       30.04F
WEBSTER CITY * CLOUDY    63  37  39 W13G18    30.03F
IOWA FALLS *     N/A     59  42  52 W10       30.07R
$$

IAZ007>011-017>019-026>030-037>042-050>054-066-221900-
   NORTHEAST IOWA

CITY           SKY/WX    TMP DP  RH WIND       PRES   REMARKS
CEDAR RAPIDS   CLOUDY    54  48  80 NW10      30.04R
6HR MIN TEMP:  50; 6HR MAX TEMP:  54; 6HR PCP: TRACE;

CHARLES CITY * CLOUDY    55  43  62 W6        30.04S
CLINTON *      CLOUDY    52  48  86 N12       30.02F
DECORAH *      CLOUDY    52  46  82 W6        30.01F
DUBUQUE        CLOUDY    51  46  83 N9        30.02R
6HR MIN TEMP:  50; 6HR MAX TEMP:  52; 6HR PCP:  0.01;

MONTICELLO *   CLOUDY    54  48  82 NW7       30.02S
OELWEIN *      CLOUDY    52  48  87 NW9       30.04S
WATERLOO       CLOUDY    53  45  74 W5        30.04S
6HR MIN TEMP:  48; 6HR MAX TEMP:  53;

$$

IAZ064-065-067-068-078-221900-
   EAST CENTRAL IOWA

CITY           SKY/WX    TMP DP  RH WIND       PRES   REMARKS
DAVENPORT      CLOUDY    52  48  86 N9        30.04F
6HR MIN TEMP:  51; 6HR MAX TEMP:  54; 6HR PCP:  0.07;

IOWA CITY      CLOUDY    56  48  74 NW7       30.05F
6HR MIN TEMP:  52; 6HR MAX TEMP:  56; 6HR PCP:  0.02;

MUSCATINE *    CLOUDY    54  48  82 VRB6      30.05R
QUAD CITIES    CLOUDY    53  45  74 N10       30.01F
6HR MIN TEMP:  53; 6HR MAX TEMP:  56; 6HR PCP:  0.06;

$$

IAZ062-063-075>077-085>089-095>099-221900-
   SOUTHEAST IOWA

CITY           SKY/WX    TMP DP  RH WIND       PRES   REMARKS
BURLINGTON     CLOUDY    54  50  86 N9        30.03F
6HR MIN TEMP:  52; 6HR MAX TEMP:  54; 6HR PCP:  0.08;

FAIRFIELD *    CLOUDY    54  46  76 NW8G14    30.06R
FORT MADISON * CLOUDY    54  50  87 N6        30.04S
KEOKUK *       CLOUDY    54  48  82 NW7       30.05R
OSKALOOSA *    CLOUDY    52  48  84 NW8       30.08R
OTTUMWA        CLOUDY    53  48  83 NW7       30.08R
6HR MIN TEMP:  50; 6HR MAX TEMP:  53; 6HR PCP:  0.02;

WASHINGTON *   CLOUDY    54  50  87 NW10      30.07R
$$

ABBREVIATIONS USED IN REMARKS
   TC - TEMPERATURES IN CELSIUS
  WCI - WIND CHILL INDEX
   HX - HEAT INDEX
  VSB - VISIBILITY
$$





USA.gov is the U.S. government's official web portal to all federal, state and local government web resources and services.